| time (UTC) | temp F | wind direction | speed knots | gust knots | rain 1hr in | rain 24hr in | rain mn in | humidity % | barometer mb |
| 20260901203520 | 73 | 214 | 3.5 | 7.0 | 0.00 | 0.02 | 0.00 | 29 | 1027.5 |
| 20260901202518 | 73 | 268 | 6.1 | 9.6 | 0.00 | 0.02 | 0.00 | 29 | 1027.6 |
| 20260901201518 | 72 | 337 | 4.3 | 9.6 | 0.00 | 0.02 | 0.00 | 30 | 1027.7 |
| 20260901200521 | 72 | 30 | 3.5 | 7.8 | 0.00 | 0.02 | 0.00 | 30 | 1027.8 |
| 20260901195521 | 73 | 35 | 3.5 | 6.1 | 0.00 | 0.02 | 0.00 | 30 | 1028.0 |
| 20260901194518 | 73 | 25 | 4.3 | 8.7 | 0.00 | 0.02 | 0.00 | 32 | 1028.0 |
| 20260901193521 | 73 | 202 | 1.7 | 4.3 | 0.00 | 0.02 | 0.00 | 33 | 1028.0 |
| 20260901192519 | 72 | 218 | 6.1 | 11.3 | 0.00 | 0.02 | 0.00 | 33 | 1028.1 |
| 20260901191521 | 71 | 121 | 3.5 | 6.1 | 0.00 | 0.02 | 0.00 | 36 | 1028.4 |
| 20260901190518 | 71 | 186 | 6.1 | 11.3 | 0.00 | 0.02 | 0.00 | 37 | 1028.4 |
| 20260901185542 | 70 | 153 | 4.3 | 7.0 | 0.00 | 0.02 | 0.00 | 38 | 1028.6 |
| 20260901184522 | 69 | 197 | 2.6 | 5.2 | 0.00 | 0.02 | 0.00 | 39 | 1028.7 |
| 20260901183522 | 69 | 171 | 1.7 | 5.2 | 0.00 | 0.02 | 0.00 | 39 | 1028.8 |
| 20260901182516 | 68 | 63 | 2.6 | 4.3 | 0.00 | 0.02 | 0.00 | 42 | 1028.9 |
| 20260901181517 | 69 | 230 | 3.5 | 7.8 | 0.00 | 0.02 | 0.00 | 41 | 1028.9 |
| 20260901180543 | 68 | 179 | 1.7 | 6.1 | 0.00 | 0.02 | 0.00 | 41 | 1029.1 |
| 20260901175523 | 66 | 218 | 3.5 | 7.8 | 0.00 | 0.02 | 0.00 | 44 | 1029.0 |
| 20260901174517 | 66 | 220 | 5.2 | 8.7 | 0.00 | 0.02 | 0.00 | 45 | 1029.1 |
| 20260901173517 | 67 | 235 | 5.2 | 8.7 | 0.00 | 0.02 | 0.00 | 46 | 1029.1 |
| 20260901172518 | 69 | 237 | 6.1 | 9.6 | 0.00 | 0.02 | 0.00 | 44 | 1029.2 |
| 20260901171518 | 68 | 230 | 6.1 | 10.4 | 0.00 | 0.02 | 0.00 | 45 | 1029.3 |
| 20260901170538 | 69 | 231 | 7.0 | 10.4 | 0.00 | 0.02 | 0.00 | 44 | 1029.3 |
| 20260901165518 | 68 | 235 | 6.1 | 11.3 | 0.00 | 0.02 | 0.00 | 46 | 1029.3 |
| 20260901164518 | 68 | 230 | 6.1 | 10.4 | 0.00 | 0.02 | 0.00 | 47 | 1029.4 |
| 20260901163518 | 67 | 212 | 7.8 | 12.2 | 0.00 | 0.02 | 0.00 | 49 | 1029.4 |
| 20260901162519 | 66 | 223 | 7.0 | 11.3 | 0.00 | 0.02 | 0.00 | 51 | 1029.4 |
| 20260901161519 | 66 | 229 | 6.1 | 10.4 | 0.00 | 0.02 | 0.00 | 52 | 1029.5 |
| 20260901160539 | 65 | 230 | 7.8 | 12.2 | 0.00 | 0.02 | 0.00 | 53 | 1029.4 |
| 20260901155539 | 64 | 234 | 6.1 | 9.6 | 0.00 | 0.02 | 0.00 | 55 | 1029.4 |
| 20260901154536 | 64 | 223 | 7.0 | 9.6 | 0.00 | 0.02 | 0.00 | 56 | 1029.3 |
| 20260901153530 | 62 | 199 | 7.0 | 8.7 | 0.00 | 0.02 | 0.00 | 60 | 1029.4 |
| 20260901152530 | 60 | 201 | 7.0 | 7.8 | 0.00 | 0.02 | 0.00 | 66 | 1029.5 |
| 20260901151530 | 0 | 200 | 7.0 | 7.0 | 0.00 | 0.02 | 0.00 | 1029.5 | |
| 20260901070107 | 58 | 190 | 7.8 | 7.8 | 0.00 | 0.02 | 0.00 | 65 | 1028.8 |
| 20260901065107 | 58 | 187 | 7.8 | 7.8 | 0.00 | 0.02 | 0.00 | 61 | 1028.7 |
| 20260901064107 | 57 | 199 | 6.1 | 7.0 | 0.00 | 0.02 | 0.00 | 66 | 1028.7 |
| 20260901063107 | 58 | 197 | 7.0 | 7.8 | 0.00 | 0.02 | 0.00 | 64 | 1028.7 |
| 20260901062108 | 58 | 185 | 5.2 | 6.1 | 0.00 | 0.02 | 0.00 | 66 | 1028.7 |
| 20260901061148 | 58 | 180 | 7.8 | 8.7 | 0.00 | 0.02 | 0.00 | 64 | 1028.8 |
| 20260901060148 | 59 | 174 | 7.8 | 9.6 | 0.00 | 0.02 | 0.00 | 62 | 1028.8 |
| 20260901055108 | 58 | 162 | 7.0 | 7.8 | 0.00 | 0.02 | 0.02 | 67 | 1028.7 |
| 20260901054108 | 58 | 179 | 6.1 | 6.1 | 0.00 | 0.02 | 0.02 | 66 | 1028.8 |
| 20260901053109 | 57 | 188 | 6.1 | 9.6 | 0.00 | 0.02 | 0.02 | 68 | 1028.9 |
| 20260901052109 | 56 | 167 | 6.1 | 7.0 | 0.00 | 0.02 | 0.02 | 74 | 1028.9 |
| 20260901051109 | 56 | 179 | 4.3 | 5.2 | 0.00 | 0.02 | 0.02 | 77 | 1028.8 |
| 20260901050109 | 56 | 177 | 4.3 | 5.2 | 0.00 | 0.02 | 0.02 | 78 | 1029.0 |
| 20260901045109 | 57 | 205 | 5.2 | 6.1 | 0.00 | 0.02 | 0.02 | 78 | 1029.1 |
| 20260901044017 | 57 | 213 | 4.3 | 6.1 | 0.00 | 0.02 | 0.02 | 77 | 1029.1 |
| 20260901043018 | 57 | 175 | 6.1 | 7.8 | 0.00 | 0.02 | 0.02 | 74 | 1029.1 |
| 20260901042018 | 57 | 168 | 5.2 | 6.1 | 0.00 | 0.02 | 0.02 | 76 | 1029.0 |
| 20260901041018 | 57 | 152 | 4.3 | 5.2 | 0.00 | 0.02 | 0.02 | 75 | 1028.9 |
| 20260901040018 | 57 | 146 | 3.5 | 5.2 | 0.00 | 0.02 | 0.02 | 78 | 1029.0 |
| 20260901035018 | 58 | 149 | 4.3 | 5.2 | 0.00 | 0.02 | 0.02 | 77 | 1029.0 |
| 20260901034019 | 58 | 153 | 3.5 | 4.3 | 0.00 | 0.02 | 0.02 | 77 | 1028.9 |
| 20260901033030 | 58 | 178 | 4.3 | 7.0 | 0.00 | 0.02 | 0.02 | 75 | 1028.8 |
| 20260901032028 | 57 | 205 | 2.6 | 3.5 | 0.00 | 0.02 | 0.02 | 75 | 1029.0 |
| 20260901031028 | 56 | 190 | 2.6 | 4.3 | 0.00 | 0.02 | 0.02 | 81 | 1029.1 |
| 20260901030019 | 55 | 204 | 3.5 | 6.1 | 0.00 | 0.02 | 0.02 | 85 | 1029.2 |
| 20260901025028 | 56 | 190 | 3.5 | 4.3 | 0.00 | 0.02 | 0.02 | 83 | 1029.1 |
| 20260901024028 | 57 | 353 | 1.7 | 4.3 | 0.00 | 0.02 | 0.02 | 81 | 1028.7 |
| 20260901023020 | 58 | 36 | 3.5 | 6.1 | 0.00 | 0.02 | 0.02 | 78 | 1028.7 |
| 20260901022020 | 59 | 25 | 5.2 | 7.8 | 0.02 | 0.02 | 0.02 | 77 | 1028.9 |
| 20260901021029 | 59 | 114 | 0.9 | 1.7 | 0.02 | 0.02 | 0.02 | 72 | 1028.8 |
| 20260901020049 | 59 | 182 | 1.7 | 3.5 | 0.02 | 0.02 | 0.02 | 76 | 1028.6 |
| 20260901015020 | 60 | 187 | 3.5 | 5.2 | 0.02 | 0.02 | 0.02 | 73 | 1028.3 |
| 20260901014020 | 61 | 191 | 5.2 | 7.8 | 0.02 | 0.02 | 0.02 | 69 | 1028.3 |
| 20260901013021 | 62 | 199 | 3.5 | 7.0 | 0.02 | 0.02 | 0.02 | 72 | 1028.4 |
| 20260901012030 | 63 | 197 | 2.6 | 3.5 | 0.00 | 0.00 | 0.00 | 62 | 1028.3 |
| 20260901011030 | 63 | 189 | 2.6 | 3.5 | 0.00 | 0.00 | 0.00 | 61 | 1028.2 |
| 20260901010030 | 63 | 292 | 2.6 | 4.3 | 0.00 | 0.00 | 0.00 | 61 | 1028.2 |
| 20260901005022 | 63 | 250 | 3.5 | 5.2 | 0.00 | 0.00 | 0.00 | 62 | 1028.0 |
| 20260901004022 | 64 | 215 | 6.1 | 8.7 | 0.00 | 0.00 | 0.00 | 58 | 1027.7 |
| 20260901003039 | 65 | 193 | 7.8 | 9.6 | 0.00 | 0.00 | 0.00 | 55 | 1027.4 |
| 20260901002019 | 65 | 187 | 8.7 | 12.2 | 0.00 | 0.00 | 0.00 | 54 | 1027.3 |
| 20260901001059 | 66 | 187 | 9.6 | 13.0 | 0.00 | 0.00 | 0.00 | 52 | 1027.3 |
| 20260901000017 | 67 | 213 | 8.7 | 10.4 | 0.00 | 0.00 | 0.00 | 53 | 1027.3 |
| 20260831235020 | 68 | 189 | 9.6 | 13.0 | 0.00 | 0.00 | 0.00 | 48 | 1027.3 |
| 20260831234020 | 68 | 193 | 9.6 | 13.0 | 0.00 | 0.00 | 0.00 | 48 | 1027.2 |
| 20260831233021 | 69 | 189 | 9.6 | 13.0 | 0.00 | 0.00 | 0.00 | 47 | 1027.1 |
| 20260831232017 | 69 | 185 | 7.8 | 11.3 | 0.00 | 0.00 | 0.00 | 47 | 1027.1 |
| 20260831231018 | 70 | 185 | 7.0 | 10.4 | 0.00 | 0.00 | 0.00 | 45 | 1027.1 |
| 20260831230041 | 70 | 175 | 8.7 | 12.2 | 0.00 | 0.00 | 0.00 | 45 | 1027.2 |
| 20260831225038 | 70 | 173 | 7.0 | 12.2 | 0.00 | 0.00 | 0.00 | 44 | 1027.4 |
| 20260831224018 | 70 | 181 | 7.8 | 12.2 | 0.00 | 0.00 | 0.00 | 43 | 1027.6 |
| 20260831223019 | 70 | 178 | 9.6 | 15.6 | 0.00 | 0.00 | 0.00 | 44 | 1027.7 |
| 20260831222017 | 71 | 183 | 10.4 | 15.6 | 0.00 | 0.00 | 0.00 | 44 | 1027.8 |
| 20260831221019 | 71 | 173 | 10.4 | 15.6 | 0.00 | 0.00 | 0.00 | 42 | 1027.9 |
| 20260831220019 | 69 | 169 | 7.8 | 12.2 | 0.00 | 0.00 | 0.00 | 42 | 1028.1 |
| 20260831215019 | 70 | 184 | 10.4 | 14.8 | 0.00 | 0.00 | 0.00 | 46 | 1028.3 |
| 20260831214017 | 71 | 200 | 10.4 | 15.6 | 0.00 | 0.00 | 0.00 | 40 | 1028.4 |
| 20260831213017 | 71 | 249 | 6.1 | 11.3 | 0.00 | 0.00 | 0.00 | 35 | 1028.4 |
| 20260831212020 | 71 | 269 | 8.7 | 12.2 | 0.00 | 0.00 | 0.00 | 33 | 1028.3 |
| 20260831211040 | 70 | 271 | 3.5 | 7.0 | 0.00 | 0.00 | 0.00 | 38 | 1028.5 |
| 20260831210018 | 70 | 42 | 3.5 | 6.1 | 0.00 | 0.00 | 0.00 | 39 | 1028.3 |
| 20260831205019 | 71 | 358 | 3.5 | 7.0 | 0.00 | 0.00 | 0.00 | 38 | 1028.4 |
| 20260831204020 | 72 | 80 | 2.6 | 6.1 | 0.00 | 0.00 | 0.00 | 38 | 1028.3 |